N1345F KPUB-CYET

Flight info

Callsign N1345F
Flight time N/A
Altitude 43000
Route QUAIL J20 FQF J17 CYS J13 CFNGJ DCT TOVUM Q842 EBGAL DCT ALSIV Q925 KODIT
Aircraft C750/M-SBDE3FGHRWXY/S

Departure

Time 2026-04-21 18:49
Airport Pueblo Memorial Airport (KPUB)

Arrival

Time N/A
Airport Edson Airport (CYET)
Time Latitude Longitude Altitude Speed Heading
2026-04-21 18:18 38.28342 -104.49801 4669 ft 0 kts 268°
2026-04-21 18:41 38.28341 -104.49803 4669 ft 2 kts 269°
2026-04-21 18:41 38.28348 -104.49813 4669 ft 2 kts 330°
2026-04-21 18:41 38.28377 -104.49819 4670 ft 6 kts 354°
2026-04-21 18:42 38.28416 -104.49811 4672 ft 6 kts 34°
2026-04-21 18:42 38.28448 -104.49762 4671 ft 9 kts 51°
2026-04-21 18:42 38.28466 -104.49707 4672 ft 4 kts 54°
2026-04-21 18:42 38.28494 -104.49702 4673 ft 5 kts 358°
2026-04-21 18:43 38.28528 -104.49688 4674 ft 6 kts 46°
2026-04-21 18:43 38.28533 -104.49615 4673 ft 12 kts 87°
2026-04-21 18:43 38.28536 -104.49486 4670 ft 15 kts 89°
2026-04-21 18:43 38.28540 -104.49353 4668 ft 15 kts 88°
2026-04-21 18:44 38.28543 -104.49218 4666 ft 17 kts 89°
2026-04-21 18:44 38.28546 -104.49064 4664 ft 17 kts 88°
2026-04-21 18:44 38.28549 -104.48913 4663 ft 17 kts 88°
2026-04-21 18:44 38.28552 -104.48762 4661 ft 18 kts 89°
2026-04-21 18:45 38.28568 -104.48606 4659 ft 18 kts 80°
2026-04-21 18:45 38.28589 -104.48456 4657 ft 17 kts 80°
2026-04-21 18:45 38.28609 -104.48314 4655 ft 16 kts 79°
2026-04-21 18:45 38.28628 -104.48175 4653 ft 16 kts 77°
2026-04-21 18:46 38.28645 -104.48040 4652 ft 15 kts 85°
2026-04-21 18:46 38.28649 -104.47907 4650 ft 15 kts 87°
2026-04-21 18:46 38.28651 -104.47819 4648 ft 15 kts 88°
2026-04-21 18:46 38.28653 -104.47685 4646 ft 15 kts 89°
2026-04-21 18:47 38.28658 -104.47554 4640 ft 15 kts 89°
2026-04-21 18:47 38.28661 -104.47426 4642 ft 14 kts 87°
2026-04-21 18:47 38.28686 -104.47366 4638 ft 6 kts 31°
2026-04-21 18:47 38.28721 -104.47360 4640 ft 4 kts
2026-04-21 18:48 38.28752 -104.47363 4640 ft 7 kts 352°
2026-04-21 18:48 38.28795 -104.47396 4634 ft 6 kts 294°
2026-04-21 18:48 38.28797 -104.47445 4642 ft 8 kts 269°
2026-04-21 18:48 38.28790 -104.47713 4647 ft 74 kts 268°
2026-04-21 18:49 38.28767 -104.48765 4666 ft 155 kts 268°
2026-04-21 18:49 38.28718 -104.50242 4963 ft 175 kts 266°
2026-04-21 18:49 38.28670 -104.51308 5397 ft 181 kts 266°
2026-04-21 18:49 38.28850 -104.53362 6289 ft 180 kts 282°
2026-04-21 18:50 38.29296 -104.54970 6604 ft 210 kts 311°
2026-04-21 18:50 38.30629 -104.55902 6938 ft 236 kts 354°
2026-04-21 18:50 38.32310 -104.55563 7367 ft 258 kts 22°
2026-04-21 18:50 38.33987 -104.54553 7998 ft 277 kts 27°
2026-04-21 18:51 38.35804 -104.53570 8876 ft 286 kts 21°
2026-04-21 18:51 38.37713 -104.52760 9853 ft 292 kts 18°
2026-04-21 18:51 38.39684 -104.51936 10413 ft 309 kts 19°
2026-04-21 18:51 38.41768 -104.50985 10611 ft 335 kts 20°
2026-04-21 18:52 38.44049 -104.49924 10748 ft 361 kts 20°
2026-04-21 18:52 38.46428 -104.48855 11485 ft 362 kts 20°
2026-04-21 18:52 38.48832 -104.47784 12222 ft 366 kts 20°
2026-04-21 18:52 38.51248 -104.46692 12923 ft 370 kts 20°
2026-04-21 18:53 38.53694 -104.45580 13608 ft 375 kts 20°
2026-04-21 18:53 38.56164 -104.44462 14250 ft 379 kts 19°
2026-04-21 18:53 38.58666 -104.43333 14881 ft 382 kts 19°
2026-04-21 18:53 38.61185 -104.42192 15474 ft 387 kts 19°
2026-04-21 18:54 38.63736 -104.41033 16118 ft 391 kts 19°
2026-04-21 18:54 38.66310 -104.39865 16788 ft 394 kts 19°
2026-04-21 18:54 38.68913 -104.38684 17568 ft 398 kts 19°
2026-04-21 18:54 38.71552 -104.37487 18195 ft 404 kts 19°
2026-04-21 18:55 38.73310 -104.36687 18693 ft 405 kts 19°
2026-04-21 18:55 38.76852 -104.35073 19578 ft 410 kts 18°
2026-04-21 18:55 38.79561 -104.33838 20248 ft 414 kts 19°
2026-04-21 18:55 38.82286 -104.32595 20926 ft 417 kts 19°
2026-04-21 18:56 38.85041 -104.31339 21605 ft 421 kts 18°
2026-04-21 18:56 38.87821 -104.30070 22292 ft 425 kts 18°
2026-04-21 18:56 38.90587 -104.28806 22956 ft 428 kts 18°
2026-04-21 18:56 38.93445 -104.27499 23611 ft 432 kts 18°
2026-04-21 18:57 38.96264 -104.26210 24082 ft 438 kts 19°
2026-04-21 18:57 38.99139 -104.24891 24642 ft 440 kts 18°
2026-04-21 18:57 39.02035 -104.23559 25162 ft 444 kts 18°
2026-04-21 18:57 39.04947 -104.22225 25733 ft 445 kts 18°
2026-04-21 18:58 39.07873 -104.20883 26288 ft 447 kts 19°
2026-04-21 18:58 39.10816 -104.19529 26835 ft 450 kts 19°
2026-04-21 18:58 39.13781 -104.18162 27330 ft 453 kts 19°
2026-04-21 18:58 39.16755 -104.16793 27880 ft 456 kts 18°
2026-04-21 18:59 39.19755 -104.15416 28431 ft 458 kts 18°
2026-04-21 18:59 39.21040 -104.14909 28588 ft 459 kts 13°
2026-04-21 18:59 39.22055 -104.14659 28693 ft 455 kts
2026-04-21 19:00 39.24821 -104.14630 28882 ft 461 kts 353°
2026-04-21 19:00 39.27922 -104.15662 29463 ft 460 kts 337°
2026-04-21 19:00 39.30638 -104.17727 29935 ft 462 kts 321°
2026-04-21 19:00 39.33107 -104.20484 30395 ft 463 kts 317°
2026-04-21 19:01 39.35469 -104.23259 30759 ft 468 kts 317°
2026-04-21 19:01 39.37895 -104.26088 31177 ft 470 kts 317°
2026-04-21 19:01 39.40343 -104.28877 31776 ft 469 kts 318°
2026-04-21 19:01 39.42788 -104.31668 32318 ft 469 kts 317°
2026-04-21 19:02 39.45211 -104.34480 32888 ft 468 kts 317°
2026-04-21 19:02 39.47631 -104.37294 33498 ft 467 kts 317°
2026-04-21 19:02 39.50060 -104.40096 34090 ft 467 kts 317°
2026-04-21 19:02 39.52484 -104.42887 34642 ft 466 kts 317°
2026-04-21 19:03 39.54896 -104.45683 35215 ft 464 kts 317°
2026-04-21 19:03 39.57294 -104.48471 35771 ft 463 kts 317°
2026-04-21 19:03 39.59694 -104.51257 36354 ft 462 kts 317°
2026-04-21 19:03 39.62085 -104.54029 36961 ft 460 kts 316°
2026-04-21 19:04 39.64465 -104.56795 37561 ft 459 kts 316°
2026-04-21 19:04 39.66983 -104.59340 38104 ft 460 kts 325°
2026-04-21 19:04 39.69800 -104.61318 38697 ft 460 kts 335°
2026-04-21 19:04 39.72831 -104.62658 39187 ft 461 kts 344°
2026-04-21 19:05 39.75999 -104.63333 39647 ft 462 kts 353°
2026-04-21 19:05 39.79217 -104.63489 40113 ft 462 kts 358°
2026-04-21 19:05 39.82432 -104.63459 40550 ft 462 kts 358°
2026-04-21 19:05 39.85604 -104.63546 40965 ft 460 kts 354°
2026-04-21 19:06 39.88789 -104.63952 41416 ft 459 kts 350°
2026-04-21 19:06 39.91955 -104.64429 41867 ft 459 kts 352°
2026-04-21 19:06 39.95141 -104.64724 42312 ft 459 kts 354°
2026-04-21 19:06 39.98329 -104.64931 42750 ft 458 kts 353°
2026-04-21 19:07 40.01506 -104.65237 43071 ft 458 kts 352°
2026-04-21 19:07 40.07997 -104.65964 43004 ft 477 kts 353°
2026-04-21 19:08 40.14737 -104.66571 42974 ft 492 kts 352°
2026-04-21 19:08 40.21668 -104.67297 42908 ft 506 kts 352°
2026-04-21 19:09 40.28701 -104.67967 42907 ft 506 kts 353°
2026-04-21 19:09 40.35684 -104.68679 42906 ft 506 kts 352°
2026-04-21 19:10 40.42714 -104.69371 42901 ft 506 kts 352°
2026-04-21 19:10 40.49736 -104.70076 42902 ft 506 kts 352°
2026-04-21 19:11 40.56768 -104.70779 42900 ft 506 kts 352°
2026-04-21 19:11 40.63749 -104.71480 42902 ft 506 kts 352°
2026-04-21 19:12 40.69631 -104.72072 42905 ft 506 kts 352°
2026-04-21 19:12 40.77794 -104.72894 42911 ft 506 kts 352°
2026-04-21 19:13 40.84835 -104.73605 42946 ft 506 kts 352°
2026-04-21 19:13 40.91867 -104.74317 43004 ft 506 kts 352°
2026-04-21 19:14 40.98899 -104.75030 43055 ft 506 kts 352°
2026-04-21 19:14 41.05927 -104.75744 43108 ft 506 kts 352°
2026-04-21 19:15 41.12904 -104.76454 43129 ft 506 kts 352°
2026-04-21 19:15 41.19873 -104.77566 43112 ft 500 kts 343°
2026-04-21 19:16 41.26256 -104.81055 43104 ft 492 kts 326°
2026-04-21 19:16 41.32014 -104.85859 43067 ft 493 kts 325°
2026-04-21 19:17 41.40969 -104.92644 42987 ft 492 kts 325°
2026-04-21 19:17 41.46872 -104.97345 42943 ft 494 kts 326°
2026-04-21 19:18 41.52832 -105.01924 42926 ft 494 kts 326°
2026-04-21 19:18 41.58748 -105.06604 42920 ft 494 kts 326°
2026-04-21 19:19 41.64652 -105.11203 42932 ft 493 kts 326°
2026-04-21 19:19 41.70561 -105.15866 42923 ft 493 kts 326°
2026-04-21 19:20 41.76493 -105.20527 42919 ft 493 kts 326°
2026-04-21 19:20 41.82405 -105.25199 42935 ft 493 kts 326°
2026-04-21 19:21 41.88327 -105.29881 42934 ft 494 kts 326°
2026-04-21 19:21 41.94254 -105.34582 42933 ft 495 kts 326°
2026-04-21 19:22 42.00152 -105.39266 42943 ft 494 kts 326°
2026-04-21 19:22 42.06053 -105.43965 42944 ft 493 kts 326°
2026-04-21 19:23 42.11973 -105.48689 42943 ft 494 kts 326°
2026-04-21 19:23 42.17882 -105.53414 42964 ft 493 kts 326°
2026-04-21 19:24 42.23775 -105.58137 42958 ft 492 kts 326°
2026-04-21 19:24 42.29663 -105.62868 42950 ft 492 kts 326°
2026-04-21 19:25 42.35521 -105.67583 42968 ft 495 kts 325°
2026-04-21 19:25 42.41435 -105.72353 42957 ft 493 kts 325°
2026-04-21 19:26 42.47331 -105.77121 42942 ft 493 kts 325°
2026-04-21 19:26 42.53218 -105.81892 42964 ft 494 kts 325°
2026-04-21 19:27 42.59111 -105.86677 42934 ft 492 kts 325°
2026-04-21 19:27 42.64955 -105.91436 42924 ft 494 kts 325°
2026-04-21 19:28 42.70840 -105.96235 42939 ft 493 kts 325°
2026-04-21 19:28 42.76734 -106.01055 42919 ft 494 kts 325°
2026-04-21 19:29 42.82641 -106.05895 42917 ft 495 kts 325°
2026-04-21 19:29 42.88541 -106.10740 42922 ft 494 kts 325°
2026-04-21 19:30 42.94432 -106.15590 42956 ft 493 kts 325°
2026-04-21 19:30 43.00319 -106.20447 42962 ft 494 kts 325°
2026-04-21 19:31 43.06161 -106.25278 42972 ft 494 kts 325°
2026-04-21 19:31 43.12050 -106.30145 42952 ft 493 kts 325°
2026-04-21 19:32 43.17956 -106.34955 42921 ft 494 kts 325°
2026-04-21 19:32 43.22867 -106.39004 42887 ft 496 kts 325°
2026-04-21 19:33 43.28771 -106.43855 42863 ft 493 kts 325°
2026-04-21 19:33 43.34667 -106.48723 42856 ft 494 kts 324°
2026-04-21 19:34 43.40560 -106.53594 42846 ft 494 kts 325°
2026-04-21 19:34 43.46440 -106.58466 42841 ft 492 kts 324°
2026-04-21 19:35 43.55268 -106.65803 42849 ft 493 kts 324°
2026-04-21 19:36 43.61141 -106.70699 42838 ft 494 kts 324°
2026-04-21 19:36 43.67019 -106.75611 42834 ft 496 kts 324°
2026-04-21 19:37 43.72920 -106.80550 42862 ft 496 kts 324°
2026-04-21 19:37 43.78807 -106.85493 42868 ft 494 kts 324°
2026-04-21 19:38 43.84684 -106.90434 42873 ft 495 kts 324°
2026-04-21 19:38 43.90563 -106.95394 42882 ft 494 kts 324°
2026-04-21 19:39 43.96445 -107.00365 42899 ft 495 kts 324°
2026-04-21 19:39 44.02321 -107.05344 42912 ft 494 kts 324°
2026-04-21 19:40 44.08154 -107.10296 42915 ft 495 kts 324°
2026-04-21 19:40 44.14034 -107.15301 42924 ft 494 kts 324°
2026-04-21 19:41 44.19900 -107.20307 42935 ft 495 kts 324°
2026-04-21 19:41 44.25771 -107.25327 42942 ft 494 kts 324°
2026-04-21 19:42 44.31629 -107.30349 42956 ft 493 kts 324°
2026-04-21 19:42 44.37486 -107.35383 42965 ft 494 kts 324°
2026-04-21 19:43 44.43306 -107.40395 42975 ft 493 kts 324°
2026-04-21 19:43 44.49156 -107.45446 42958 ft 494 kts 324°
2026-04-21 19:44 44.55004 -107.50506 42952 ft 493 kts 324°
2026-04-21 19:44 44.60858 -107.55585 42957 ft 494 kts 324°
2026-04-21 19:45 44.66664 -107.60633 42942 ft 494 kts 324°
2026-04-21 19:45 44.72507 -107.65727 42935 ft 494 kts 324°
2026-04-21 19:46 44.78347 -107.70830 42935 ft 494 kts 324°
2026-04-21 19:46 44.84201 -107.75957 42906 ft 495 kts 324°
2026-04-21 19:47 44.90050 -107.81092 42909 ft 498 kts 324°
2026-04-21 19:47 44.95928 -107.86265 42908 ft 498 kts 324°
2026-04-21 19:48 45.01817 -107.91462 42889 ft 498 kts 324°
2026-04-21 19:48 45.07699 -107.96664 42881 ft 499 kts 324°
2026-04-21 19:49 45.13551 -108.01853 42882 ft 498 kts 324°
2026-04-21 19:49 45.19444 -108.07091 42864 ft 499 kts 324°
2026-04-21 19:50 45.24336 -108.11451 42865 ft 500 kts 324°
2026-04-21 19:50 45.31224 -108.17599 42860 ft 499 kts 324°
2026-04-21 19:51 45.37070 -108.22836 42851 ft 499 kts 324°
2026-04-21 19:51 45.42953 -108.28116 42853 ft 500 kts 324°
2026-04-21 19:52 45.48826 -108.33402 42852 ft 500 kts 323°
2026-04-21 19:52 45.54728 -108.38728 42838 ft 501 kts 323°
2026-04-21 19:53 45.60622 -108.44057 42834 ft 501 kts 323°